When you browse on this site, cookies collect data to enhance your experience and personalize the content and advertising you see.
Visit our Privacy Policy to learn more. By continuing to use the site, you agree to this use of cookies and data.
  • en France
  • Liste des pays
  • À 7 jours
  • Température de l'eau
  • Carte satellitaire
  • Carte météo
  • Widgets météo
  • user-avatar
    Se connecter

    Météo par heure à Ajaccio

    Ce jour, 21 Mars, Jeudi

    Heure Température Précipitation Vent Pression Humidité
    00:00 +8°C° 0 mm 4 m/s 755 mmHg 54%
    01:00 +8°C° 0 mm 4 m/s 755 mmHg 53%
    02:00 +9°C° 0 mm 3 m/s 754 mmHg 52%
    03:00 +8°C° 0 mm 3 m/s 754 mmHg 52%
    04:00 +8°C° 0 mm 3 m/s 754 mmHg 51%
    05:00 +9°C° 0 mm 3 m/s 754 mmHg 52%
    06:00 +9°C° 0 mm 3 m/s 754 mmHg 52%
    07:00 +9°C° 0 mm 2 m/s 754 mmHg 55%
    08:00 +12°C° 0 mm 2 m/s 754 mmHg 50%
    09:00 +15°C° 0 mm 2 m/s 755 mmHg 44%
    10:00 +17°C° 0 mm 2 m/s 755 mmHg 39%
    11:00 +18°C° 0 mm 2 m/s 755 mmHg 38%
    12:00 +20°C° 0 mm 3 m/s 755 mmHg 37%
    13:00 +21°C° 0 mm 3 m/s 755 mmHg 35%
    14:00 +20°C° 0 mm 3 m/s 755 mmHg 37%
    15:00 +20°C° 0 mm 3 m/s 754 mmHg 38%
    16:00 +20°C° 0 mm 3 m/s 754 mmHg 39%
    17:00 +18°C° 0 mm 2 m/s 754 mmHg 46%
    18:00 +15°C° 0 mm 2 m/s 754 mmHg 53%
    19:00 +13°C° 0 mm 2 m/s 754 mmHg 60%
    20:00 +13°C° 0 mm 2 m/s 754 mmHg 58%
    21:00 +13°C° 0 mm 2 m/s 755 mmHg 55%
    22:00 +12°C° 0 mm 3 m/s 755 mmHg 53%
    23:00 +13°C° 0 mm 2 m/s 755 mmHg 51%

    Demain, 22 Mars, Vendredi

    Heure Température Précipitation Vent Pression Humidité
    00:00 +13°C° 0 mm 2 m/s 755 mmHg 49%
    01:00 +13°C° 0 mm 2 m/s 755 mmHg 47%
    02:00 +13°C° 0 mm 2 m/s 755 mmHg 47%
    03:00 +13°C° 0 mm 2 m/s 755 mmHg 46%
    04:00 +12°C° 0 mm 2 m/s 755 mmHg 46%
    05:00 +13°C° 0 mm 2 m/s 755 mmHg 46%
    06:00 +13°C° 0 mm 2 m/s 755 mmHg 47%
    07:00 +13°C° 0 mm 2 m/s 755 mmHg 48%
    08:00 +15°C° 0 mm 2 m/s 755 mmHg 44%
    09:00 +18°C° 0 mm 2 m/s 756 mmHg 40%
    10:00 +20°C° 0 mm 2 m/s 756 mmHg 36%
    11:00 +21°C° 0 mm 3 m/s 756 mmHg 37%
    12:00 +21°C° 0 mm 3 m/s 756 mmHg 37%
    13:00 +21°C° 0 mm 3 m/s 756 mmHg 38%
    14:00 +21°C° 0 mm 3 m/s 755 mmHg 40%
    15:00 +20°C° 0 mm 3 m/s 755 mmHg 42%
    16:00 +20°C° 0 mm 3 m/s 755 mmHg 44%
    17:00 +17°C° 0 mm 2 m/s 755 mmHg 52%
    18:00 +15°C° 0 mm 1 m/s 754 mmHg 59%
    19:00 +13°C° 0 mm 1 m/s 754 mmHg 67%
    20:00 +13°C° 0 mm 1 m/s 755 mmHg 65%
    21:00 +13°C° 0 mm 1 m/s 755 mmHg 63%
    22:00 +13°C° 0 mm 1 m/s 755 mmHg 61%
    23:00 +13°C° 0 mm 1 m/s 755 mmHg 61%

    Après-demain, 23 Mars, Samedi

    Heure Température Précipitation Vent Pression Humidité
    00:00 +13°C° 0 mm 1 m/s 755 mmHg 60%
    01:00 +12°C° 0 mm 1 m/s 755 mmHg 60%
    02:00 +12°C° 0 mm 1 m/s 755 mmHg 59%
    03:00 +12°C° 0 mm 1 m/s 754 mmHg 59%
    04:00 +12°C° 0 mm 1 m/s 754 mmHg 58%
    05:00 +12°C° 0 mm 1 m/s 754 mmHg 57%
    06:00 +12°C° 0 mm 1 m/s 754 mmHg 56%
    07:00 +12°C° 0 mm 1 m/s 754 mmHg 55%
    08:00 +14°C° 0 mm 1 m/s 754 mmHg 50%
    09:00 +17°C° 0 mm 2 m/s 754 mmHg 45%
    10:00 +19°C° 0 mm 2 m/s 754 mmHg 40%
    11:00 +20°C° 0 mm 2 m/s 754 mmHg 40%
    12:00 +20°C° 0 mm 2 m/s 754 mmHg 40%
    13:00 +20°C° 0 mm 3 m/s 754 mmHg 40%
    14:00 +20°C° 0 mm 3 m/s 754 mmHg 42%
    15:00 +19°C° 0 mm 2 m/s 754 mmHg 43%
    16:00 +19°C° 0 mm 2 m/s 753 mmHg 45%
    17:00 +17°C° 0 mm 2 m/s 753 mmHg 53%
    18:00 +15°C° 0 mm 1 m/s 753 mmHg 61%
    19:00 +12°C° 0 mm 0 m/s 753 mmHg 69%
    20:00 +13°C° 0 mm 1 m/s 754 mmHg 67%
    21:00 +13°C° 0 mm 1 m/s 754 mmHg 65%
    22:00 +13°C° 0 mm 2 m/s 754 mmHg 64%
    23:00 +12°C° 0 mm 1 m/s 754 mmHg 62%

    24 Mars, Dimanche

    Heure Température Précipitation Vent Pression Humidité
    00:00 +12°C° 0 mm 1 m/s 754 mmHg 60%
    01:00 +12°C° 0 mm 1 m/s 754 mmHg 58%
    02:00 +12°C° 0 mm 1 m/s 754 mmHg 57%
    03:00 +12°C° 0 mm 1 m/s 754 mmHg 56%
    04:00 +12°C° 0 mm 2 m/s 754 mmHg 54%
    05:00 +12°C° 0 mm 2 m/s 754 mmHg 54%
    06:00 +12°C° 0 mm 2 m/s 754 mmHg 53%
    07:00 +12°C° 0 mm 2 m/s 754 mmHg 52%
    08:00 +14°C° 0 mm 2 m/s 754 mmHg 49%
    09:00 +17°C° 0 mm 2 m/s 754 mmHg 46%
    10:00 +19°C° 0 mm 2 m/s 755 mmHg 43%
    11:00 +19°C° 0 mm 2 m/s 755 mmHg 44%
    12:00 +19°C° 0 mm 3 m/s 755 mmHg 45%
    13:00 +20°C° 0 mm 3 m/s 754 mmHg 46%
    14:00 +19°C° 0 mm 3 m/s 754 mmHg 48%
    15:00 +19°C° 0 mm 3 m/s 754 mmHg 50%
    16:00 +18°C° 0 mm 3 m/s 753 mmHg 51%
    17:00 +16°C° 0 mm 2 m/s 753 mmHg 60%
    18:00 +14°C° 0 mm 1 m/s 753 mmHg 69%
    19:00 +11°C° 0 mm 0 m/s 753 mmHg 78%
    20:00 +12°C° 0 mm 1 m/s 753 mmHg 77%
    21:00 +12°C° 0 mm 1 m/s 754 mmHg 76%
    22:00 +12°C° 0 mm 1 m/s 754 mmHg 75%
    23:00 +12°C° 0 mm 1 m/s 754 mmHg 76%

    25 Mars, Lundi

    Heure Température Précipitation Vent Pression Humidité
    00:00 +11°C° 0 mm 1 m/s 753 mmHg 77%
    01:00 +11°C° 0 mm 1 m/s 753 mmHg 77%
    02:00 +11°C° 0 mm 1 m/s 753 mmHg 77%
    03:00 +11°C° 0 mm 1 m/s 752 mmHg 76%
    04:00 +11°C° 0 mm 1 m/s 752 mmHg 75%
    05:00 +11°C° 0 mm 1 m/s 752 mmHg 74%
    06:00 +11°C° 0 mm 1 m/s 752 mmHg 72%
    07:00 +12°C° 0 mm 1 m/s 752 mmHg 71%
    08:00 +14°C° 0 mm 1 m/s 752 mmHg 64%
    09:00 +16°C° 0 mm 2 m/s 752 mmHg 58%
    10:00 +18°C° 0 mm 2 m/s 753 mmHg 51%
    11:00 +18°C° 0 mm 3 m/s 752 mmHg 51%
    12:00 +18°C° 0 mm 3 m/s 752 mmHg 51%
    13:00 +19°C° 0 mm 4 m/s 752 mmHg 51%
    14:00 +18°C° 0 mm 3 m/s 752 mmHg 53%
    15:00 +18°C° 0 mm 3 m/s 751 mmHg 54%
    16:00 +18°C° 0 mm 2 m/s 751 mmHg 55%
    17:00 +16°C° 0 mm 2 m/s 751 mmHg 64%
    18:00 +14°C° 0 mm 2 m/s 751 mmHg 73%
    19:00 +12°C° 0 mm 1 m/s 751 mmHg 82%
    20:00 +12°C° 0 mm 1 m/s 751 mmHg 81%
    21:00 +12°C° 0 mm 2 m/s 751 mmHg 80%
    22:00 +12°C° 0 mm 2 m/s 751 mmHg 80%
    23:00 +12°C° 0 mm 2 m/s 751 mmHg 80%

    26 Mars, Mardi

    Heure Température Précipitation Vent Pression Humidité
    00:00 +12°C° 0 mm 2 m/s 751 mmHg 80%
    01:00 +12°C° 0 mm 2 m/s 751 mmHg 80%
    02:00 +10°C° 0 mm 2 m/s 751 mmHg 80%
    03:00 +10°C° 0 mm 2 m/s 751 mmHg 81%
    04:00 +10°C° 0 mm 2 m/s 751 mmHg 82%
    05:00 +10°C° 0 mm 2 m/s 751 mmHg 80%
    06:00 +12°C° 0 mm 2 m/s 751 mmHg 78%
    07:00 +12°C° 0 mm 2 m/s 751 mmHg 77%
    08:00 +14°C° 0 mm 2 m/s 752 mmHg 69%
    09:00 +17°C° 0 mm 2 m/s 752 mmHg 61%
    10:00 +19°C° 0 mm 2 m/s 752 mmHg 53%
    11:00 +19°C° 0 mm 2 m/s 752 mmHg 53%
    12:00 +19°C° 0 mm 3 m/s 752 mmHg 54%
    13:00 +19°C° 0 mm 3 m/s 752 mmHg 54%
    14:00 +19°C° 0 mm 3 m/s 752 mmHg 56%
    15:00 +18°C° 0 mm 2 m/s 751 mmHg 59%
    16:00 +18°C° 0 mm 2 m/s 751 mmHg 61%
    17:00 +16°C° 0 mm 2 m/s 751 mmHg 67%
    18:00 +15°C° 0 mm 1 m/s 751 mmHg 73%
    19:00 +13°C° 0 mm 1 m/s 752 mmHg 79%
    20:00 +13°C° 0 mm 1 m/s 752 mmHg 78%
    21:00 +13°C° 0 mm 1 m/s 752 mmHg 78%
    22:00 +13°C° 0 mm 1 m/s 753 mmHg 77%
    23:00 +13°C° 0 mm 1 m/s 753 mmHg 78%
    Voir plus